This is the latest recevied weather packets stored in our database for station/object CE7LGA-10. If no packets are shown the sender has not sent any weather packets the latest 10 day(s).
| Time | Temp. | Humidity | Pressure | Rain* | Wind** | Luminosity | Snow |
|---|---|---|---|---|---|---|---|
| 1777690331 | 12.78° C | 67% | 1018 hPa | - | - | - | - |
| 1777689430 | 15° C | 68% | 1017.8 hPa | - | - | - | - |
| 1777688530 | 15° C | 71% | 1017.7 hPa | - | - | - | - |
| 1777687630 | 15° C | 72% | 1017.6 hPa | - | - | - | - |
| 1777686730 | 15° C | 71% | 1017.6 hPa | - | - | - | - |
| 1777685830 | 14.44° C | 67% | 1017.5 hPa | - | - | - | - |
| 1777684930 | 14.44° C | 67% | 1017.5 hPa | - | - | - | - |
| 1777684030 | 16.67° C | 69% | 1017.3 hPa | - | - | - | - |
| 1777683129 | 16.11° C | 72% | 1017.3 hPa | - | - | - | - |
| 1777682232 | 16.67° C | 74% | 1017.1 hPa | - | - | - | - |
| 1777681332 | 17.22° C | 74% | 1017 hPa | - | - | - | - |
| 1777680432 | 16.67° C | 72% | 1016.9 hPa | - | - | - | - |
| 1777679532 | 16.67° C | 76% | 1016.7 hPa | - | - | - | - |
| 1777678632 | 16.11° C | 75% | 1016.7 hPa | - | - | - | - |
| 1777677731 | 16.11° C | 72% | 1016.5 hPa | - | - | - | - |
| 1777676831 | 15.56° C | 67% | 1016.4 hPa | - | - | - | - |
| 1777675931 | 15.56° C | 67% | 1016.4 hPa | - | - | - | - |
| 1777675031 | 16.11° C | 67% | 1016.2 hPa | - | - | - | - |
| 1777674132 | 16.11° C | 66% | 1016 hPa | - | - | - | - |
| 1777673231 | 17.22° C | 65% | 1015.8 hPa | - | - | - | - |
| 1777672331 | 17.22° C | 67% | 1015.5 hPa | - | - | - | - |
| 1777671431 | 16.67° C | 69% | 1015.2 hPa | - | - | - | - |
| 1777670531 | 16.67° C | 69% | 1015.2 hPa | - | - | - | - |
| 1777669631 | 16.67° C | 72% | 1015 hPa | - | - | - | - |
| 1777668730 | 16.67° C | 74% | 1015 hPa | - | - | - | - |
* Rain since midnight (hover to see other rain measurements)
** Current wind speed in m/s (hover to see current wind gust speed)